Weather in Verkhniy Potam

Russia / Sverdlovsk Oblast     56°55′03″N   58°00′03″E
temp.,
°C
wind,
m/s
gust,
m/s
humid.,
%
clouds,
%
prec.,
mm/h
press.,
hPa
HPBL,
m
25 july, sun
sun2523:00+13wnw2699100 2.4 1008207
02:00+11n3109780 0.2 1010391
05:00+8nw2898100 0.2 1012198
08:00+11nnw38870 0.0 1014456
11:00+16nnw57430 0.0 10151653
14:00+17nw56375 0.0 10161937
17:00+17nw46388 0.0 10172102
20:00+14nw24585 0.0 1018128
26 july, mon
mon2623:00+10wnw1163100 0.0 101910
02:00+11nw1161100 0.0 102010
05:00+10wnw116749 0.0 102030
08:00+12w125980 0.0 1020132
11:00+17w4641100 0.0 10192456
14:00+17w4643100 0.0 10192168
17:00+16w476371 0.3 1018811
20:00+14wnw377633 0.4 1018250
27 july, tue
tue2723:00+11sw278164 0.4 1017138
02:00+9sw21084100 0.0 1016183
05:00+13wsw41266100 0.0 1014537
08:00+14w51174100 0.2 1013860
11:00+14w488990 2.1 1013789
14:00+14nw379058 1.2 1012665
17:00+18wnw5851100 1.5 10112012
20:00+14nnw3773100 0.1 1012407
28 july, wed
wed2823:00+10wnw11795 0.1 101327
02:00+6wnw11935 0.0 101310
05:00+5wsw229274 0.0 101342
08:00+12w4106763 0.0 1012670
11:00+14wnw51070100 0.8 10111631
14:00+15nw6115092 0.7 10111754
17:00+14nw5105147 0.7 10121585
20:00+13nnw366311 0.0 1012446
29 july, thu
thu2923:00+7se118286 0.0 101310
02:00+9se2475100 0.0 1011119
05:00+10se1275100 0.0 101055
08:00+14wsw3106561 0.0 1009512
11:00+19w465024 0.0 10081043
14:00+22wsw694562 0.0 10081777
17:00+23wsw594892 0.0 10062205
20:00+16nw238754 0.8 100680